Home   Weather   49°54'N, 97°12'W   Past weeks
Flag for Canada

Past Weather in 49°54'N, 97°12'W, Canada — Yesterday and Last 2 Weeks

Now
48 °F

Cool.


Feels Like: 46 °F
Forecast: 68 / 48 °F
Wind: 5 mph from North

Location: Winnipeg The Forks Man

Current Time: May 25, 2019 at 2:22:28 am

Latest Report: May 25, 2019 at 1:00 am


Visibility: N/A

Pressure: 29.64 "Hg

Humidity: 95%

Dew Point: 47 °F

Location of 49°54'N, 97°12'WLocation

Past Weather in 49°54'N, 97°12'W — Graph

°F

49°54'N, 97°12'W Temperature Yesterday

Maximum temperature yesterday: 56 °F (at 12:00 am)
Minimum temperature yesterday: 48 °F (at 6:00 am)
Average temperature yesterday: 51 °F

High & Low Weather Summary for the Past Weeks

 TemperatureHumidityPressure
High77 °F (May 13, 6:00 pm)95% (May 25, 12:00 am)30.19 "Hg (May 25, 12:00 am)
Low36 °F (May 10, 6:00 am)15% (May 10, 3:00 pm)29.56 "Hg (May 15, 9:00 pm)
Average53 °F51%29.95 "Hg
* Reported May 10 1:00 am — May 25 1:00 am, 49°54'N, 97°12'W. Weather by CustomWeather, © 2019

Note: Actual official high and low records may vary slightly from our data, if they occured in-between our weather recording intervals... More about our weather records

Advertising

49°54'N, 97°12'W Weather History for the Previous 24 Hours

Scroll right to see more
 ConditionsComfort  
Time TempWeatherWind HumidityBarometerVisibility
1:00 am
Sat, May 25
48 °FCool.5 mph95%29.64 "HgN/A
12:00 am49 °FCool.5 mph95%29.64 "HgN/A
11:00 pm
Fri, May 24
49 °FCool.3 mph88%29.64 "HgN/A
10:00 pm49 °FCool.3 mph94%29.65 "HgN/A
9:00 pm49 °FCool.3 mph93%29.66 "HgN/A
8:00 pm50 °FCool.3 mph93%29.67 "HgN/A
7:00 pm50 °FCool.5 mph92%29.70 "HgN/A
6:00 pm51 °FCool.6 mph80%29.71 "HgN/A
5:00 pm49 °FCool.7 mph93%29.74 "HgN/A
4:00 pm51 °FCool.7 mph82%29.76 "HgN/A
3:00 pm53 °FCool.7 mph82%29.79 "HgN/A
2:00 pm50 °FCool.6 mph85%29.83 "HgN/A
1:00 pm51 °FCool.5 mph88%29.86 "HgN/A
12:00 pm54 °FCool.6 mph73%29.86 "HgN/A
11:00 am55 °FCool.7 mph63%29.89 "HgN/A
10:00 am54 °FCool.6 mph65%29.92 "HgN/A
9:00 am51 °FCool.3 mph70%29.96 "HgN/A
8:00 am50 °FCool.3 mph72%30.01 "HgN/A
7:00 am49 °FCool.2 mph76%30.01 "HgN/A
6:00 am48 °FCool.3 mph77%30.03 "HgN/A
5:00 am49 °FCool.2 mph76%30.03 "HgN/A
4:00 am51 °FCool.1 mph71%30.03 "HgN/A
3:00 am54 °FCool.5 mph66%30.05 "HgN/A
2:00 am55 °FCool.2 mph62%30.06 "HgN/A
Weather by CustomWeather, © 2019

See weather overview